GFSGBSN_prec_precacc24_114.txt.gz
Total_Precipitation_Accumulation
0.01 0.01 0.00 0.00 0.00 0.00 0.00 0.00 0.00 0.00 0.00 0.00 0.00 0.00 0.00 0.00 0.00 0.00 0.00 0.00 0.00 0.00 0.00 0.00 0.00 0.00 0.00 0.00 0.00 0.00 0.00 0.00 0.00 0.00 0.00 0.00 0.00 0.00 0.00 0.00 0.00 0.00 0.00 0.00 0.00 0.00 0.00
0.01 0.01 0.00 0.00 0.00 0.00 0.00 0.00 0.00 0.00 0.00 0.00 0.00 0.00 0.00 0.00 0.00 0.00 0.00 0.00 0.00 0.00 0.00 0.00 0.00 0.01 0.00 0.00 0.00 0.00 0.00 0.00 0.00 0.00 0.00 0.00 0.00 0.00 0.00 0.00 0.00 0.00 0.00 0.00 0.00 0.00 0.00
0.01 0.01 0.02 0.01 0.00 0.00 0.00 0.00 0.00 0.00 0.00 0.00 0.00 0.00 0.00 0.00 0.00 0.00 0.00 0.00 0.00 0.00 0.00 0.00 0.00 0.01 0.00 0.00 0.00 0.00 0.00 0.00 0.00 0.00 0.00 0.00 0.00 0.00 0.00 0.00 0.00 0.00 0.00 0.00 0.00 0.00 0.00
0.02 0.02 0.02 0.00 0.00 0.00 0.00 0.00 0.00 0.00 0.00 0.01 0.01 0.01 0.00 0.00 0.00 0.00 0.00 0.00 0.00 0.00 0.00 0.00 0.00 0.01 0.00 0.00 0.00 0.00 0.00 0.00 0.00 0.00 0.00 0.00 0.00 0.00 0.00 0.00 0.00 0.00 0.00 0.00 0.00 0.00 0.00
0.10 0.08 0.04 0.02 0.00 0.00 0.00 0.00 0.01 0.00 0.01 0.01 0.01 0.00 0.00 0.00 0.00 0.00 0.00 0.00 0.00 0.00 0.00 0.00 0.01 0.01 0.00 0.00 0.00 0.00 0.00 0.00 0.00 0.00 0.00 0.00 0.00 0.00 0.00 0.00 0.00 0.00 0.00 0.00 0.00 0.00 0.00
0.10 0.06 0.04 0.02 0.01 0.00 0.00 0.01 0.01 0.00 0.00 0.00 0.00 0.00 0.00 0.00 0.00 0.00 0.00 0.00 0.00 0.00 0.00 0.00 0.01 0.01 0.00 0.00 0.00 0.00 0.00 0.00 0.00 0.00 0.00 0.00 0.00 0.00 0.00 0.00 0.00 0.00 0.00 0.00 0.00 0.00 0.00
0.12 0.08 0.05 0.03 0.01 0.01 0.01 0.01 0.01 0.00 0.00 0.00 0.00 0.00 0.01 0.00 0.00 0.00 0.00 0.00 0.00 0.00 0.00 0.00 0.00 0.00 0.00 0.00 0.00 0.00 0.00 0.00 0.00 0.00 0.00 0.00 0.00 0.00 0.00 0.00 0.00 0.00 0.00 0.00 0.00 0.00 0.00
0.15 0.10 0.05 0.03 0.02 0.02 0.01 0.01 0.01 0.00 0.00 0.00 0.00 0.00 0.00 0.00 0.00 0.00 0.00 0.00 0.01 0.05 0.07 0.00 0.00 0.00 0.00 0.00 0.00 0.00 0.00 0.00 0.00 0.00 0.00 0.00 0.00 0.00 0.00 0.00 0.00 0.00 0.00 0.00 0.00 0.00 0.00
0.23 0.18 0.13 0.07 0.04 0.03 0.01 0.01 0.01 0.01 0.00 0.00 0.00 0.00 0.00 0.00 0.00 0.00 0.00 0.00 0.00 0.01 0.05 0.00 0.00 0.00 0.00 0.00 0.00 0.00 0.00 0.00 0.01 0.01 0.00 0.01 0.00 0.00 0.00 0.00 0.00 0.00 0.00 0.00 0.00 0.00 0.00
0.20 0.14 0.11 0.06 0.03 0.03 0.01 0.01 0.00 0.00 0.00 0.00 0.00 0.00 0.01 0.01 0.00 0.00 0.00 0.00 0.00 0.03 0.10 0.00 0.00 0.00 0.00 0.01 0.01 0.00 0.00 0.05 0.07 0.05 0.03 0.02 0.00 0.00 0.00 0.00 0.01 0.00 0.00 0.00 0.00 0.00 0.04
0.21 0.15 0.11 0.06 0.04 0.02 0.01 0.00 0.00 0.00 0.00 0.00 0.00 0.00 0.02 0.02 0.00 0.00 0.00 0.00 0.00 0.08 0.07 0.00 0.00 0.01 0.00 0.02 0.04 0.02 0.00 0.01 0.03 0.03 0.05 0.04 0.01 0.01 0.00 0.00 0.02 0.01 0.00 0.00 0.00 0.03 0.02
0.17 0.15 0.16 0.16 0.10 0.05 0.02 0.01 0.00 0.00 0.00 0.01 0.01 0.02 0.02 0.00 0.00 0.00 0.00 0.00 0.08 0.13 0.03 0.00 0.01 0.01 0.01 0.00 0.00 0.00 0.00 0.02 0.02 0.01 0.01 0.01 0.01 0.01 0.00 0.00 0.01 0.01 0.01 0.03 0.05 0.07 0.07
0.26 0.23 0.21 0.17 0.11 0.05 0.03 0.02 0.01 0.01 0.01 0.02 0.01 0.00 0.00 0.00 0.00 0.00 0.00 0.01 0.11 0.15 0.00 0.01 0.02 0.00 0.01 0.03 0.02 0.02 0.05 0.02 0.04 0.06 0.08 0.08 0.09 0.01 0.01 0.00 0.01 0.02 0.06 0.08 0.12 0.14 0.04
0.27 0.22 0.20 0.14 0.08 0.04 0.01 0.01 0.01 0.01 0.02 0.01 0.00 0.00 0.00 0.00 0.00 0.00 0.01 0.06 0.08 0.00 0.01 0.00 0.00 0.01 0.10 0.20 0.16 0.08 0.07 0.02 0.01 0.00 0.04 0.12 0.17 0.08 0.00 0.00 0.01 0.01 0.04 0.07 0.09 0.03 0.01
0.23 0.16 0.12 0.09 0.06 0.04 0.02 0.01 0.00 0.01 0.01 0.01 0.00 0.00 0.00 0.00 0.00 0.00 0.08 0.11 0.01 0.02 0.10 0.06 0.04 0.10 0.28 0.11 0.35 0.26 0.05 0.01 0.02 0.02 0.11 0.21 0.18 0.06 0.01 0.03 0.07 0.04 0.04 0.04 0.25 0.17 0.13
0.12 0.08 0.08 0.06 0.03 0.02 0.01 0.01 0.01 0.02 0.03 0.02 0.00 0.00 0.00 0.00 0.00 0.01 0.11 0.07 0.00 0.03 0.08 0.20 0.39 0.22 0.34 0.11 0.38 0.17 0.10 0.05 0.03 0.02 0.05 0.16 0.39 0.17 0.05 0.06 0.06 0.06 0.05 0.21 0.31 0.30 0.25
0.06 0.04 0.05 0.03 0.01 0.00 0.01 0.01 0.01 0.04 0.06 0.01 0.00 0.00 0.00 0.00 0.03 0.04 0.06 0.03 0.00 0.01 0.13 0.38 0.34 0.31 0.44 0.37 0.45 0.17 0.15 0.13 0.06 0.03 0.04 0.17 0.41 0.31 0.14 0.13 0.09 0.14 0.12 0.16 0.23 0.26 0.43
0.05 0.03 0.03 0.03 0.01 0.01 0.01 0.02 0.03 0.08 0.03 0.00 0.00 0.00 0.00 0.05 0.21 0.05 0.02 0.02 0.01 0.03 0.09 0.23 0.26 0.43 0.67 0.48 0.54 0.62 0.35 0.37 0.13 0.02 0.03 0.07 0.66 0.51 0.17 0.09 0.06 0.14 0.11 0.11 0.33 0.31 0.31
0.06 0.02 0.02 0.03 0.01 0.01 0.02 0.04 0.08 0.06 0.01 0.00 0.01 0.00 0.00 0.05 0.19 0.09 0.02 0.01 0.01 0.01 0.03 0.16 0.22 0.54 0.68 0.81 0.98 1.13 0.57 0.18 0.05 0.03 0.13 0.14 0.49 0.30 0.31 0.42 0.17 0.11 0.10 0.19 0.33 0.44 0.52
0.04 0.02 0.03 0.03 0.01 0.01 0.02 0.05 0.11 0.06 0.02 0.00 0.00 0.00 0.01 0.03 0.12 0.08 0.04 0.02 0.01 0.00 0.01 0.08 0.29 0.58 0.64 0.81 0.86 0.97 0.51 0.10 0.02 0.00 0.02 0.10 0.11 0.12 0.30 0.26 0.12 0.12 0.17 0.18 0.31 0.46 0.47
0.03 0.02 0.03 0.02 0.01 0.00 0.01 0.05 0.12 0.06 0.02 0.00 0.00 0.00 0.02 0.06 0.11 0.05 0.08 0.05 0.08 0.12 0.10 0.20 0.52 0.40 0.47 0.65 0.50 0.51 0.47 0.13 0.06 0.02 0.03 0.05 0.14 0.31 0.21 0.20 0.16 0.50 0.45 0.51 0.44 0.33 0.40
0.03 0.02 0.02 0.02 0.02 0.00 0.01 0.04 0.09 0.06 0.02 0.00 0.00 0.00 0.00 0.01 0.04 0.10 0.13 0.07 0.06 0.18 0.37 0.34 0.11 0.06 0.10 0.12 0.31 0.29 0.34 0.21 0.18 0.08 0.05 0.04 0.14 0.39 0.91 0.52 0.15 0.33 0.21 0.16 0.16 0.21 0.30
0.04 0.03 0.02 0.03 0.02 0.01 0.02 0.06 0.09 0.08 0.00 0.00 0.00 0.00 0.00 0.00 0.00 0.00 0.12 0.20 0.16 0.15 0.12 0.06 0.01 0.00 0.00 0.00 0.00 0.00 0.01 0.00 0.00 0.03 0.04 0.02 0.02 0.08 0.27 0.30 0.07 0.22 0.14 0.04 0.05 0.07 0.06
0.05 0.03 0.02 0.03 0.02 0.01 0.02 0.06 0.10 0.13 0.01 0.00 0.00 0.00 0.00 0.01 0.00 0.00 0.00 0.01 0.02 0.01 0.02 0.00 0.00 0.00 0.00 0.00 0.00 0.00 0.00 0.00 0.00 0.00 0.00 0.01 0.01 0.01 0.06 0.04 0.25 0.50 0.08 0.01 0.05 0.15 0.07
0.07 0.05 0.03 0.03 0.01 0.01 0.02 0.04 0.06 0.14 0.12 0.01 0.00 0.00 0.00 0.01 0.00 0.00 0.00 0.00 0.00 0.00 0.00 0.01 0.00 0.00 0.00 0.00 0.00 0.00 0.01 0.01 0.00 0.00 0.00 0.00 0.00 0.00 0.06 0.08 0.20 0.08 0.01 0.01 0.08 0.10 0.05
0.07 0.07 0.04 0.04 0.02 0.02 0.02 0.03 0.05 0.08 0.18 0.08 0.02 0.00 0.01 0.02 0.03 0.00 0.00 0.00 0.00 0.00 0.00 0.00 0.00 0.00 0.00 0.00 0.00 0.01 0.01 0.01 0.02 0.02 0.00 0.00 0.00 0.01 0.01 0.04 0.16 0.12 0.01 0.00 0.01 0.10 0.04
0.06 0.06 0.06 0.04 0.03 0.02 0.03 0.04 0.07 0.09 0.17 0.10 0.04 0.00 0.04 0.04 0.01 0.00 0.00 0.00 0.00 0.00 0.00 0.00 0.00 0.00 0.00 0.01 0.03 0.01 0.03 0.01 0.08 0.03 0.01 0.00 0.01 0.02 0.02 0.07 0.04 0.00 0.00 0.00 0.08 0.18 0.06
0.05 0.06 0.07 0.06 0.04 0.02 0.02 0.05 0.08 0.11 0.17 0.15 0.10 0.00 0.04 0.04 0.01 0.00 0.00 0.00 0.00 0.00 0.01 0.00 0.00 0.01 0.02 0.02 0.02 0.01 0.02 0.03 0.12 0.04 0.03 0.02 0.12 0.04 0.04 0.07 0.07 0.01 0.01 0.06 0.12 0.08 0.06
0.04 0.05 0.05 0.06 0.04 0.03 0.02 0.04 0.08 0.13 0.16 0.27 0.20 0.04 0.03 0.07 0.01 0.00 0.00 0.00 0.00 0.00 0.00 0.00 0.02 0.07 0.10 0.15 0.12 0.05 0.05 0.03 0.03 0.31 0.03 0.11 0.08 0.06 0.06 0.12 0.17 0.05 0.06 0.06 0.03 0.07 0.07

GFSGBSN_prec_precacc24_117.txt.gz
Total_Precipitation_Accumulation
0.01 0.00 0.00 0.00 0.00 0.00 0.00 0.00 0.00 0.00 0.00 0.00 0.00 0.00 0.00 0.00 0.00 0.00 0.00 0.00 0.00 0.00 0.00 0.00 0.00 0.00 0.00 0.00 0.00 0.00 0.00 0.00 0.00 0.00 0.00 0.00 0.00 0.00 0.00 0.00 0.00 0.00 0.00 0.00 0.00 0.00 0.00
0.01 0.01 0.01 0.01 0.00 0.00 0.00 0.00 0.00 0.00 0.00 0.00 0.00 0.00 0.00 0.00 0.00 0.00 0.00 0.00 0.00 0.00 0.00 0.00 0.00 0.01 0.00 0.00 0.00 0.00 0.00 0.00 0.00 0.00 0.00 0.00 0.00 0.00 0.00 0.00 0.00 0.00 0.00 0.00 0.00 0.00 0.00
0.02 0.01 0.02 0.00 0.00 0.00 0.00 0.00 0.00 0.00 0.00 0.00 0.00 0.00 0.00 0.00 0.00 0.00 0.00 0.00 0.00 0.00 0.00 0.00 0.00 0.00 0.00 0.00 0.00 0.00 0.00 0.00 0.00 0.00 0.00 0.00 0.00 0.00 0.00 0.00 0.00 0.00 0.00 0.00 0.00 0.00 0.00
0.06 0.04 0.03 0.01 0.00 0.00 0.00 0.00 0.00 0.00 0.00 0.00 0.00 0.00 0.00 0.00 0.00 0.00 0.00 0.00 0.00 0.00 0.00 0.00 0.00 0.00 0.00 0.00 0.00 0.00 0.00 0.00 0.00 0.00 0.00 0.00 0.00 0.00 0.00 0.00 0.00 0.00 0.00 0.00 0.00 0.00 0.00
0.12 0.10 0.08 0.04 0.01 0.00 0.00 0.00 0.01 0.00 0.01 0.00 0.00 0.00 0.00 0.00 0.00 0.00 0.00 0.00 0.00 0.00 0.00 0.00 0.00 0.01 0.00 0.00 0.00 0.00 0.00 0.00 0.00 0.00 0.00 0.00 0.00 0.00 0.00 0.00 0.00 0.00 0.00 0.00 0.00 0.00 0.00
0.14 0.11 0.08 0.05 0.03 0.01 0.01 0.01 0.01 0.00 0.00 0.00 0.00 0.00 0.00 0.00 0.00 0.00 0.00 0.00 0.00 0.00 0.00 0.00 0.01 0.01 0.00 0.00 0.00 0.00 0.00 0.00 0.00 0.00 0.00 0.00 0.00 0.00 0.00 0.00 0.00 0.00 0.00 0.00 0.00 0.00 0.00
0.16 0.15 0.11 0.08 0.05 0.05 0.02 0.01 0.01 0.00 0.00 0.00 0.00 0.00 0.00 0.00 0.00 0.00 0.00 0.00 0.00 0.00 0.00 0.00 0.00 0.00 0.00 0.00 0.00 0.00 0.00 0.00 0.00 0.00 0.00 0.00 0.00 0.00 0.00 0.00 0.00 0.00 0.00 0.00 0.00 0.00 0.00
0.21 0.18 0.16 0.11 0.09 0.07 0.05 0.03 0.01 0.00 0.00 0.00 0.00 0.00 0.00 0.00 0.00 0.00 0.00 0.00 0.01 0.04 0.06 0.00 0.00 0.00 0.00 0.00 0.00 0.00 0.00 0.00 0.00 0.00 0.00 0.00 0.00 0.00 0.00 0.00 0.00 0.00 0.00 0.00 0.00 0.00 0.00
0.32 0.26 0.24 0.19 0.12 0.07 0.04 0.02 0.01 0.00 0.00 0.00 0.00 0.00 0.00 0.00 0.00 0.00 0.00 0.00 0.00 0.01 0.05 0.00 0.00 0.00 0.00 0.00 0.00 0.00 0.00 0.00 0.01 0.01 0.00 0.01 0.00 0.00 0.00 0.00 0.00 0.00 0.00 0.00 0.00 0.00 0.00
0.34 0.25 0.19 0.14 0.09 0.07 0.06 0.05 0.02 0.01 0.01 0.00 0.00 0.00 0.00 0.01 0.00 0.00 0.00 0.00 0.00 0.03 0.10 0.00 0.00 0.00 0.00 0.01 0.01 0.00 0.00 0.05 0.07 0.05 0.03 0.02 0.00 0.00 0.00 0.00 0.01 0.00 0.00 0.00 0.00 0.01 0.04
0.36 0.29 0.21 0.13 0.07 0.06 0.06 0.04 0.04 0.02 0.00 0.00 0.00 0.00 0.01 0.01 0.00 0.00 0.00 0.00 0.00 0.08 0.07 0.00 0.00 0.01 0.00 0.02 0.04 0.02 0.00 0.01 0.03 0.03 0.05 0.04 0.01 0.01 0.01 0.00 0.02 0.01 0.01 0.00 0.01 0.04 0.02
0.41 0.38 0.32 0.25 0.16 0.09 0.06 0.05 0.03 0.01 0.00 0.00 0.01 0.00 0.00 0.00 0.00 0.00 0.00 0.00 0.07 0.12 0.03 0.00 0.01 0.01 0.01 0.00 0.00 0.00 0.00 0.02 0.02 0.01 0.01 0.01 0.01 0.01 0.00 0.00 0.01 0.01 0.01 0.03 0.06 0.07 0.05
0.55 0.43 0.32 0.25 0.20 0.14 0.11 0.06 0.02 0.01 0.00 0.01 0.01 0.00 0.00 0.00 0.00 0.00 0.00 0.00 0.08 0.13 0.00 0.01 0.02 0.00 0.01 0.03 0.02 0.02 0.05 0.02 0.04 0.06 0.08 0.08 0.09 0.01 0.01 0.00 0.01 0.02 0.05 0.08 0.09 0.10 0.02
0.60 0.51 0.39 0.24 0.17 0.14 0.09 0.03 0.01 0.00 0.00 0.00 0.00 0.00 0.00 0.00 0.00 0.00 0.00 0.04 0.05 0.00 0.01 0.00 0.00 0.01 0.10 0.20 0.16 0.08 0.07 0.02 0.01 0.02 0.06 0.12 0.17 0.08 0.00 0.00 0.01 0.01 0.02 0.06 0.07 0.04 0.01
0.61 0.46 0.37 0.24 0.17 0.10 0.05 0.03 0.01 0.00 0.01 0.00 0.00 0.00 0.00 0.00 0.00 0.00 0.02 0.05 0.00 0.02 0.09 0.06 0.04 0.10 0.28 0.11 0.35 0.26 0.05 0.02 0.06 0.06 0.15 0.21 0.18 0.06 0.01 0.04 0.09 0.07 0.02 0.02 0.12 0.14 0.15
0.54 0.45 0.37 0.30 0.16 0.07 0.03 0.03 0.01 0.01 0.01 0.01 0.00 0.00 0.00 0.00 0.00 0.00 0.03 0.02 0.00 0.02 0.06 0.18 0.39 0.22 0.34 0.11 0.38 0.18 0.10 0.06 0.05 0.02 0.05 0.16 0.39 0.17 0.05 0.07 0.06 0.08 0.06 0.16 0.22 0.25 0.27
0.40 0.27 0.29 0.18 0.07 0.03 0.03 0.02 0.01 0.02 0.02 0.00 0.00 0.00 0.00 0.00 0.02 0.03 0.02 0.01 0.00 0.01 0.11 0.35 0.33 0.31 0.44 0.37 0.45 0.17 0.15 0.13 0.07 0.03 0.05 0.18 0.42 0.33 0.14 0.15 0.14 0.17 0.11 0.11 0.15 0.22 0.45
0.20 0.14 0.10 0.06 0.02 0.02 0.02 0.01 0.02 0.05 0.01 0.00 0.00 0.00 0.00 0.04 0.20 0.04 0.02 0.01 0.01 0.03 0.08 0.19 0.26 0.43 0.68 0.48 0.54 0.62 0.34 0.38 0.13 0.02 0.03 0.08 0.74 0.60 0.24 0.11 0.16 0.20 0.12 0.07 0.19 0.25 0.31
0.10 0.06 0.03 0.03 0.01 0.01 0.02 0.01 0.04 0.03 0.00 0.00 0.00 0.00 0.00 0.01 0.11 0.09 0.01 0.00 0.01 0.00 0.01 0.11 0.20 0.54 0.68 0.81 0.98 1.13 0.56 0.18 0.05 0.03 0.13 0.15 0.58 0.32 0.36 0.51 0.23 0.13 0.08 0.14 0.25 0.36 0.71
0.06 0.04 0.03 0.02 0.01 0.01 0.01 0.01 0.06 0.03 0.01 0.00 0.00 0.00 0.00 0.02 0.04 0.06 0.03 0.01 0.01 0.00 0.01 0.07 0.28 0.58 0.64 0.81 0.86 0.97 0.51 0.10 0.02 0.00 0.02 0.11 0.14 0.20 0.33 0.33 0.23 0.16 0.14 0.16 0.25 0.45 0.63
0.04 0.03 0.03 0.02 0.01 0.00 0.01 0.00 0.05 0.04 0.01 0.00 0.00 0.00 0.00 0.01 0.04 0.03 0.07 0.04 0.06 0.10 0.09 0.19 0.51 0.40 0.47 0.65 0.50 0.51 0.47 0.13 0.06 0.02 0.03 0.06 0.23 0.48 0.41 0.40 0.22 0.55 0.52 0.70 0.46 0.33 0.41
0.03 0.03 0.03 0.02 0.01 0.00 0.00 0.00 0.05 0.04 0.01 0.00 0.00 0.00 0.00 0.00 0.00 0.02 0.06 0.06 0.03 0.16 0.37 0.33 0.11 0.06 0.10 0.12 0.31 0.29 0.34 0.21 0.18 0.08 0.05 0.04 0.19 0.55 1.20 0.70 0.19 0.54 0.60 0.43 0.28 0.27 0.34
0.04 0.02 0.02 0.03 0.02 0.00 0.00 0.01 0.06 0.05 0.00 0.00 0.00 0.00 0.00 0.00 0.00 0.00 0.06 0.06 0.06 0.11 0.11 0.06 0.01 0.00 0.00 0.00 0.00 0.00 0.01 0.00 0.00 0.03 0.04 0.02 0.02 0.12 0.37 0.37 0.09 0.34 0.38 0.16 0.13 0.13 0.09
0.06 0.03 0.02 0.02 0.01 0.01 0.01 0.02 0.05 0.09 0.00 0.00 0.00 0.00 0.00 0.01 0.00 0.00 0.00 0.00 0.01 0.00 0.02 0.00 0.00 0.00 0.00 0.00 0.00 0.00 0.00 0.00 0.00 0.00 0.00 0.01 0.01 0.01 0.09 0.06 0.29 0.68 0.19 0.04 0.03 0.07 0.08
0.08 0.05 0.03 0.02 0.01 0.01 0.02 0.02 0.03 0.09 0.09 0.01 0.00 0.00 0.00 0.01 0.00 0.00 0.00 0.00 0.00 0.00 0.00 0.01 0.00 0.00 0.00 0.00 0.00 0.00 0.01 0.01 0.00 0.00 0.00 0.00 0.00 0.02 0.08 0.11 0.26 0.15 0.03 0.02 0.07 0.09 0.07
0.08 0.07 0.04 0.04 0.02 0.01 0.01 0.02 0.03 0.05 0.15 0.07 0.02 0.00 0.01 0.02 0.03 0.00 0.00 0.00 0.00 0.00 0.00 0.00 0.00 0.00 0.00 0.00 0.00 0.01 0.01 0.01 0.02 0.02 0.00 0.00 0.00 0.01 0.04 0.06 0.18 0.14 0.01 0.00 0.01 0.10 0.06
0.08 0.07 0.07 0.04 0.02 0.01 0.01 0.02 0.04 0.07 0.14 0.08 0.04 0.00 0.04 0.04 0.01 0.00 0.00 0.00 0.00 0.00 0.00 0.00 0.00 0.00 0.00 0.01 0.03 0.01 0.03 0.01 0.08 0.03 0.01 0.00 0.01 0.02 0.02 0.06 0.04 0.01 0.02 0.02 0.09 0.20 0.08
0.07 0.07 0.07 0.05 0.03 0.01 0.01 0.02 0.04 0.07 0.14 0.12 0.08 0.00 0.04 0.04 0.01 0.00 0.00 0.00 0.00 0.00 0.00 0.00 0.00 0.01 0.01 0.02 0.02 0.01 0.02 0.03 0.13 0.05 0.03 0.02 0.11 0.04 0.04 0.06 0.07 0.01 0.01 0.06 0.13 0.09 0.06
0.06 0.07 0.05 0.05 0.03 0.02 0.01 0.01 0.03 0.07 0.13 0.22 0.14 0.03 0.03 0.06 0.01 0.00 0.00 0.00 0.00 0.00 0.00 0.00 0.01 0.05 0.08 0.08 0.07 0.05 0.05 0.03 0.03 0.32 0.02 0.10 0.06 0.05 0.06 0.13 0.18 0.06 0.07 0.07 0.03 0.07 0.07

GFSGBSN_prec_precacc24_123.txt.gz
Total_Precipitation_Accumulation
0.04 0.02 0.01 0.01 0.01 0.00 0.00 0.00 0.00 0.00 0.00 0.00 0.00 0.00 0.00 0.00 0.00 0.00 0.00 0.00 0.00 0.00 0.00 0.00 0.00 0.00 0.00 0.00 0.00 0.00 0.00 0.00 0.00 0.00 0.00 0.00 0.00 0.00 0.00 0.00 0.00 0.00 0.00 0.00 0.00 0.00 0.00
0.07 0.05 0.03 0.02 0.02 0.01 0.00 0.00 0.00 0.00 0.00 0.00 0.00 0.00 0.00 0.00 0.00 0.00 0.00 0.00 0.00 0.00 0.00 0.00 0.00 0.00 0.00 0.00 0.00 0.00 0.00 0.00 0.00 0.00 0.00 0.00 0.00 0.00 0.00 0.00 0.00 0.00 0.00 0.00 0.00 0.00 0.00
0.07 0.07 0.05 0.02 0.02 0.01 0.01 0.00 0.00 0.00 0.00 0.00 0.00 0.00 0.00 0.00 0.00 0.00 0.00 0.00 0.00 0.00 0.00 0.00 0.00 0.00 0.00 0.00 0.00 0.00 0.00 0.00 0.00 0.00 0.00 0.00 0.00 0.00 0.00 0.00 0.00 0.00 0.00 0.00 0.00 0.00 0.00
0.11 0.11 0.11 0.08 0.04 0.03 0.02 0.02 0.02 0.01 0.01 0.01 0.00 0.00 0.00 0.00 0.00 0.00 0.00 0.00 0.00 0.00 0.00 0.00 0.00 0.00 0.00 0.00 0.00 0.00 0.00 0.00 0.00 0.00 0.00 0.00 0.00 0.00 0.00 0.00 0.00 0.00 0.00 0.00 0.00 0.00 0.00
0.16 0.16 0.15 0.11 0.08 0.05 0.04 0.03 0.03 0.02 0.01 0.00 0.00 0.00 0.00 0.00 0.00 0.00 0.00 0.00 0.00 0.00 0.00 0.00 0.00 0.00 0.00 0.00 0.00 0.00 0.00 0.00 0.00 0.00 0.00 0.00 0.00 0.00 0.00 0.00 0.00 0.00 0.00 0.00 0.00 0.00 0.00
0.18 0.16 0.13 0.11 0.11 0.10 0.08 0.06 0.04 0.03 0.03 0.03 0.01 0.00 0.00 0.00 0.00 0.00 0.00 0.00 0.00 0.00 0.00 0.00 0.00 0.00 0.00 0.00 0.00 0.00 0.00 0.00 0.00 0.00 0.00 0.00 0.00 0.00 0.00 0.00 0.00 0.00 0.00 0.00 0.00 0.00 0.00
0.18 0.19 0.18 0.15 0.10 0.10 0.13 0.11 0.09 0.07 0.05 0.02 0.01 0.00 0.00 0.00 0.00 0.00 0.00 0.00 0.00 0.00 0.00 0.00 0.00 0.00 0.00 0.00 0.00 0.00 0.00 0.00 0.00 0.00 0.00 0.00 0.00 0.00 0.00 0.00 0.00 0.00 0.00 0.00 0.00 0.00 0.00
0.22 0.20 0.19 0.17 0.17 0.16 0.14 0.12 0.09 0.07 0.05 0.04 0.02 0.00 0.00 0.00 0.00 0.00 0.00 0.00 0.00 0.00 0.00 0.00 0.00 0.00 0.00 0.00 0.00 0.00 0.00 0.00 0.00 0.00 0.00 0.00 0.00 0.00 0.00 0.00 0.00 0.00 0.00 0.00 0.00 0.00 0.00
0.33 0.30 0.29 0.26 0.20 0.16 0.17 0.14 0.09 0.05 0.04 0.04 0.02 0.01 0.00 0.00 0.00 0.00 0.00 0.00 0.00 0.00 0.01 0.00 0.00 0.00 0.00 0.00 0.00 0.00 0.00 0.00 0.01 0.01 0.00 0.01 0.00 0.00 0.00 0.00 0.00 0.00 0.00 0.00 0.00 0.00 0.00
0.35 0.29 0.26 0.21 0.17 0.17 0.16 0.17 0.12 0.06 0.03 0.02 0.02 0.01 0.01 0.00 0.01 0.00 0.00 0.00 0.00 0.01 0.02 0.00 0.00 0.00 0.00 0.01 0.01 0.00 0.00 0.05 0.07 0.05 0.03 0.02 0.00 0.00 0.00 0.00 0.01 0.00 0.00 0.00 0.00 0.01 0.04
0.39 0.32 0.28 0.21 0.16 0.14 0.13 0.10 0.08 0.07 0.05 0.04 0.02 0.01 0.01 0.01 0.00 0.00 0.00 0.00 0.00 0.02 0.02 0.00 0.00 0.01 0.00 0.02 0.04 0.02 0.00 0.01 0.03 0.03 0.05 0.04 0.01 0.01 0.01 0.00 0.02 0.01 0.01 0.00 0.01 0.04 0.02
0.47 0.43 0.41 0.35 0.26 0.18 0.13 0.10 0.07 0.04 0.02 0.02 0.02 0.02 0.01 0.00 0.00 0.00 0.00 0.00 0.01 0.04 0.01 0.00 0.00 0.01 0.01 0.00 0.00 0.00 0.00 0.02 0.02 0.01 0.01 0.01 0.01 0.01 0.00 0.00 0.01 0.01 0.01 0.03 0.06 0.07 0.06
0.65 0.59 0.52 0.43 0.36 0.29 0.21 0.12 0.07 0.04 0.03 0.01 0.00 0.00 0.01 0.01 0.01 0.00 0.00 0.00 0.03 0.02 0.00 0.00 0.01 0.00 0.01 0.03 0.02 0.02 0.05 0.02 0.04 0.06 0.08 0.08 0.09 0.01 0.01 0.00 0.01 0.02 0.05 0.09 0.09 0.10 0.02
0.81 0.75 0.65 0.46 0.37 0.29 0.24 0.15 0.08 0.06 0.05 0.03 0.02 0.01 0.00 0.00 0.00 0.00 0.00 0.03 0.02 0.00 0.01 0.00 0.00 0.00 0.09 0.20 0.16 0.08 0.07 0.02 0.01 0.02 0.07 0.12 0.17 0.08 0.00 0.00 0.01 0.01 0.02 0.07 0.08 0.04 0.04
1.09 0.89 0.72 0.58 0.48 0.32 0.23 0.19 0.14 0.08 0.08 0.05 0.02 0.01 0.00 0.00 0.00 0.00 0.02 0.02 0.00 0.00 0.02 0.01 0.01 0.04 0.21 0.11 0.34 0.26 0.05 0.02 0.06 0.09 0.22 0.22 0.18 0.06 0.01 0.04 0.09 0.07 0.02 0.01 0.07 0.12 0.15
1.89 1.75 1.14 0.96 0.67 0.49 0.29 0.23 0.24 0.19 0.08 0.06 0.04 0.00 0.00 0.00 0.00 0.00 0.03 0.01 0.00 0.00 0.00 0.02 0.12 0.07 0.21 0.11 0.37 0.18 0.10 0.06 0.05 0.04 0.10 0.19 0.44 0.17 0.06 0.07 0.07 0.08 0.06 0.11 0.14 0.22 0.35
1.65 1.69 1.75 1.33 0.97 0.66 0.48 0.33 0.30 0.31 0.18 0.08 0.07 0.03 0.00 0.00 0.00 0.01 0.02 0.00 0.00 0.00 0.00 0.02 0.06 0.11 0.19 0.31 0.42 0.13 0.14 0.14 0.07 0.03 0.05 0.23 0.52 0.34 0.15 0.15 0.14 0.17 0.11 0.10 0.09 0.19 0.50
0.96 1.10 1.05 1.03 0.94 0.87 0.70 0.40 0.31 0.31 0.25 0.08 0.04 0.02 0.00 0.00 0.02 0.01 0.01 0.00 0.00 0.00 0.00 0.00 0.02 0.19 0.33 0.35 0.49 0.54 0.31 0.37 0.13 0.02 0.04 0.10 0.82 0.65 0.24 0.11 0.17 0.23 0.14 0.06 0.13 0.21 0.28
0.36 0.50 0.60 0.60 0.57 0.61 0.67 0.52 0.35 0.21 0.13 0.05 0.01 0.01 0.00 0.00 0.02 0.01 0.00 0.00 0.00 0.00 0.00 0.01 0.07 0.34 0.39 0.64 0.89 1.02 0.46 0.16 0.05 0.03 0.13 0.23 0.71 0.37 0.34 0.49 0.23 0.14 0.12 0.13 0.15 0.32 0.70
0.19 0.23 0.32 0.34 0.31 0.31 0.37 0.35 0.20 0.09 0.02 0.00 0.01 0.01 0.00 0.00 0.00 0.00 0.01 0.00 0.00 0.00 0.00 0.02 0.13 0.33 0.40 0.63 0.79 0.85 0.33 0.05 0.01 0.00 0.02 0.24 0.26 0.33 0.46 0.46 0.30 0.19 0.16 0.18 0.23 0.40 0.63
0.18 0.19 0.20 0.20 0.17 0.18 0.15 0.11 0.05 0.02 0.00 0.00 0.00 0.00 0.00 0.00 0.00 0.00 0.01 0.01 0.00 0.03 0.03 0.11 0.15 0.20 0.28 0.46 0.44 0.49 0.45 0.12 0.06 0.01 0.03 0.08 0.34 0.65 0.51 0.54 0.32 0.68 0.73 0.78 0.47 0.41 0.45
0.12 0.13 0.12 0.11 0.09 0.06 0.03 0.02 0.01 0.01 0.00 0.00 0.00 0.00 0.00 0.00 0.00 0.00 0.00 0.00 0.00 0.06 0.11 0.10 0.05 0.03 0.04 0.06 0.26 0.24 0.31 0.20 0.17 0.08 0.05 0.04 0.22 0.66 1.27 0.82 0.31 0.75 0.90 0.68 0.36 0.39 0.44
0.12 0.06 0.03 0.05 0.03 0.01 0.00 0.00 0.01 0.01 0.00 0.00 0.00 0.00 0.00 0.00 0.00 0.00 0.00 0.00 0.00 0.02 0.01 0.02 0.01 0.00 0.00 0.00 0.00 0.00 0.01 0.00 0.00 0.03 0.04 0.03 0.05 0.15 0.44 0.39 0.12 0.43 0.76 0.42 0.24 0.19 0.12
0.14 0.04 0.01 0.03 0.01 0.00 0.00 0.00 0.01 0.02 0.00 0.00 0.00 0.00 0.00 0.01 0.00 0.00 0.00 0.00 0.00 0.00 0.00 0.00 0.00 0.00 0.00 0.00 0.00 0.00 0.00 0.00 0.00 0.00 0.00 0.01 0.04 0.04 0.17 0.12 0.34 0.80 0.34 0.19 0.11 0.14 0.10
0.13 0.05 0.02 0.02 0.00 0.00 0.00 0.00 0.01 0.02 0.02 0.00 0.00 0.00 0.00 0.01 0.00 0.00 0.00 0.00 0.00 0.00 0.00 0.00 0.00 0.00 0.00 0.00 0.00 0.00 0.01 0.01 0.00 0.00 0.00 0.00 0.03 0.10 0.11 0.13 0.30 0.21 0.05 0.04 0.10 0.13 0.11
0.13 0.06 0.03 0.03 0.01 0.01 0.00 0.00 0.01 0.01 0.04 0.02 0.01 0.00 0.01 0.02 0.03 0.00 0.00 0.00 0.00 0.00 0.00 0.00 0.00 0.00 0.00 0.00 0.00 0.01 0.01 0.01 0.02 0.02 0.00 0.00 0.04 0.12 0.05 0.06 0.19 0.16 0.01 0.00 0.01 0.12 0.07
0.12 0.08 0.07 0.04 0.01 0.00 0.00 0.00 0.01 0.01 0.05 0.02 0.02 0.00 0.01 0.03 0.01 0.00 0.00 0.00 0.00 0.00 0.00 0.00 0.00 0.00 0.00 0.01 0.03 0.01 0.03 0.01 0.08 0.03 0.01 0.00 0.04 0.13 0.05 0.05 0.05 0.02 0.04 0.02 0.09 0.22 0.09
0.09 0.11 0.09 0.04 0.02 0.00 0.00 0.00 0.00 0.01 0.05 0.06 0.05 0.00 0.02 0.03 0.01 0.00 0.00 0.00 0.00 0.00 0.00 0.00 0.00 0.01 0.00 0.01 0.01 0.01 0.02 0.03 0.14 0.06 0.04 0.02 0.11 0.07 0.09 0.06 0.08 0.02 0.03 0.07 0.14 0.10 0.06
0.08 0.12 0.09 0.05 0.03 0.01 0.00 0.00 0.00 0.01 0.03 0.13 0.10 0.03 0.01 0.02 0.01 0.00 0.00 0.00 0.00 0.00 0.00 0.00 0.01 0.03 0.02 0.03 0.02 0.02 0.05 0.03 0.03 0.32 0.02 0.08 0.04 0.03 0.08 0.11 0.17 0.08 0.08 0.08 0.02 0.06 0.06

GFSGBSN_prec_precacc24_126.txt.gz
Total_Precipitation_Accumulation
0.07 0.05 0.02 0.02 0.02 0.01 0.00 0.00 0.00 0.00 0.00 0.00 0.00 0.00 0.00 0.00 0.00 0.00 0.00 0.00 0.00 0.00 0.00 0.00 0.00 0.00 0.00 0.00 0.00 0.00 0.00 0.00 0.00 0.00 0.00 0.00 0.00 0.00 0.00 0.00 0.00 0.00 0.00 0.00 0.00 0.00 0.00
0.08 0.07 0.06 0.05 0.03 0.02 0.01 0.01 0.00 0.00 0.00 0.00 0.00 0.00 0.00 0.00 0.00 0.00 0.00 0.00 0.00 0.00 0.00 0.00 0.00 0.00 0.00 0.00 0.00 0.00 0.00 0.00 0.00 0.00 0.00 0.00 0.00 0.00 0.00 0.00 0.00 0.00 0.00 0.00 0.00 0.00 0.00
0.07 0.07 0.07 0.06 0.05 0.02 0.01 0.01 0.01 0.00 0.00 0.00 0.00 0.00 0.00 0.00 0.00 0.00 0.00 0.00 0.00 0.00 0.00 0.00 0.00 0.00 0.00 0.00 0.00 0.00 0.00 0.00 0.00 0.00 0.00 0.00 0.00 0.00 0.00 0.00 0.00 0.00 0.00 0.00 0.00 0.00 0.00
0.11 0.11 0.11 0.10 0.08 0.09 0.06 0.02 0.01 0.02 0.01 0.02 0.01 0.00 0.00 0.00 0.00 0.00 0.00 0.00 0.00 0.00 0.00 0.00 0.00 0.00 0.00 0.00 0.00 0.00 0.00 0.00 0.00 0.00 0.00 0.00 0.00 0.00 0.00 0.00 0.00 0.00 0.00 0.00 0.00 0.00 0.00
0.16 0.16 0.15 0.11 0.09 0.09 0.08 0.06 0.04 0.03 0.02 0.02 0.02 0.01 0.00 0.00 0.00 0.00 0.00 0.00 0.00 0.00 0.00 0.00 0.00 0.00 0.00 0.00 0.00 0.00 0.00 0.00 0.00 0.00 0.00 0.00 0.00 0.00 0.00 0.00 0.00 0.00 0.00 0.00 0.00 0.00 0.00
0.18 0.16 0.13 0.11 0.11 0.10 0.09 0.09 0.08 0.05 0.04 0.03 0.02 0.01 0.01 0.00 0.00 0.00 0.00 0.00 0.00 0.00 0.00 0.00 0.00 0.00 0.00 0.00 0.00 0.00 0.00 0.00 0.00 0.00 0.00 0.00 0.00 0.00 0.00 0.00 0.00 0.00 0.00 0.00 0.00 0.00 0.00
0.19 0.20 0.18 0.15 0.10 0.10 0.14 0.15 0.13 0.10 0.07 0.03 0.01 0.01 0.00 0.00 0.00 0.00 0.00 0.00 0.00 0.00 0.00 0.00 0.00 0.00 0.00 0.00 0.00 0.00 0.00 0.00 0.00 0.00 0.00 0.00 0.00 0.00 0.00 0.00 0.00 0.00 0.00 0.00 0.00 0.00 0.00
0.23 0.20 0.19 0.17 0.17 0.16 0.14 0.13 0.13 0.13 0.10 0.07 0.04 0.01 0.00 0.00 0.00 0.00 0.00 0.00 0.00 0.00 0.00 0.00 0.00 0.00 0.00 0.00 0.00 0.00 0.00 0.00 0.00 0.00 0.00 0.00 0.00 0.00 0.00 0.00 0.00 0.00 0.00 0.00 0.00 0.00 0.00
0.34 0.30 0.29 0.26 0.21 0.16 0.17 0.15 0.10 0.08 0.10 0.08 0.03 0.01 0.01 0.00 0.00 0.00 0.00 0.00 0.00 0.00 0.00 0.00 0.00 0.00 0.00 0.00 0.00 0.00 0.00 0.00 0.01 0.01 0.00 0.00 0.00 0.00 0.00 0.00 0.00 0.00 0.00 0.00 0.00 0.00 0.00
0.36 0.29 0.26 0.21 0.17 0.16 0.15 0.17 0.15 0.10 0.07 0.04 0.03 0.02 0.01 0.01 0.01 0.00 0.00 0.00 0.00 0.00 0.01 0.00 0.00 0.00 0.00 0.01 0.01 0.00 0.00 0.05 0.07 0.05 0.03 0.01 0.00 0.00 0.00 0.00 0.01 0.00 0.00 0.00 0.00 0.01 0.04
0.39 0.32 0.28 0.21 0.16 0.13 0.14 0.11 0.12 0.11 0.09 0.06 0.04 0.01 0.01 0.01 0.00 0.01 0.01 0.00 0.00 0.01 0.03 0.00 0.00 0.00 0.00 0.02 0.04 0.02 0.00 0.01 0.03 0.03 0.05 0.04 0.01 0.01 0.01 0.00 0.02 0.01 0.01 0.00 0.01 0.04 0.02
0.47 0.43 0.41 0.35 0.26 0.18 0.14 0.11 0.10 0.07 0.05 0.04 0.04 0.05 0.02 0.00 0.01 0.00 0.00 0.00 0.03 0.09 0.04 0.00 0.00 0.00 0.00 0.00 0.00 0.00 0.00 0.02 0.02 0.01 0.01 0.01 0.01 0.01 0.00 0.00 0.01 0.01 0.01 0.03 0.06 0.07 0.06
0.65 0.58 0.52 0.43 0.36 0.29 0.22 0.14 0.11 0.09 0.07 0.03 0.01 0.01 0.01 0.01 0.01 0.00 0.01 0.03 0.09 0.08 0.01 0.00 0.01 0.00 0.00 0.02 0.01 0.02 0.05 0.02 0.04 0.06 0.08 0.07 0.08 0.01 0.01 0.00 0.01 0.02 0.05 0.09 0.08 0.10 0.02
0.81 0.75 0.65 0.46 0.37 0.30 0.26 0.20 0.16 0.14 0.10 0.07 0.04 0.03 0.02 0.01 0.01 0.02 0.03 0.06 0.08 0.03 0.01 0.00 0.00 0.00 0.05 0.16 0.13 0.08 0.07 0.02 0.01 0.02 0.07 0.12 0.17 0.08 0.00 0.00 0.01 0.01 0.02 0.07 0.08 0.04 0.04
1.09 0.89 0.72 0.58 0.49 0.34 0.28 0.27 0.26 0.18 0.13 0.10 0.07 0.07 0.04 0.01 0.01 0.01 0.06 0.08 0.01 0.00 0.00 0.00 0.00 0.01 0.02 0.03 0.27 0.26 0.05 0.02 0.06 0.09 0.22 0.22 0.19 0.06 0.01 0.04 0.09 0.07 0.02 0.01 0.07 0.12 0.15
1.90 1.78 1.16 0.97 0.72 0.57 0.39 0.33 0.34 0.25 0.12 0.09 0.10 0.11 0.08 0.03 0.01 0.01 0.04 0.03 0.00 0.00 0.00 0.00 0.02 0.02 0.05 0.03 0.22 0.17 0.10 0.06 0.05 0.04 0.10 0.19 0.45 0.17 0.06 0.07 0.07 0.09 0.06 0.12 0.15 0.23 0.35
1.67 1.78 2.06 1.51 1.08 0.81 0.62 0.44 0.37 0.36 0.20 0.12 0.17 0.27 0.17 0.02 0.02 0.02 0.02 0.00 0.00 0.00 0.00 0.00 0.00 0.04 0.09 0.21 0.19 0.07 0.13 0.14 0.07 0.03 0.05 0.23 0.53 0.33 0.15 0.15 0.15 0.19 0.11 0.10 0.10 0.20 0.51
0.97 1.20 1.29 1.54 1.38 1.08 0.81 0.46 0.36 0.35 0.33 0.18 0.21 0.29 0.15 0.01 0.03 0.02 0.01 0.00 0.00 0.00 0.00 0.00 0.01 0.13 0.25 0.26 0.22 0.38 0.29 0.37 0.13 0.02 0.04 0.10 0.82 0.64 0.23 0.12 0.17 0.23 0.15 0.06 0.14 0.21 0.29
0.39 0.53 0.72 0.89 0.98 1.03 1.02 0.75 0.42 0.30 0.29 0.23 0.18 0.20 0.13 0.03 0.04 0.01 0.00 0.00 0.00 0.00 0.00 0.01 0.06 0.27 0.23 0.44 0.62 0.90 0.43 0.16 0.05 0.03 0.13 0.22 0.71 0.35 0.30 0.48 0.23 0.14 0.15 0.16 0.19 0.36 0.73
0.22 0.30 0.39 0.51 0.61 0.56 0.66 0.66 0.48 0.35 0.27 0.15 0.11 0.22 0.16 0.08 0.02 0.00 0.00 0.00 0.00 0.00 0.00 0.01 0.05 0.14 0.16 0.39 0.58 0.66 0.28 0.05 0.01 0.00 0.02 0.24 0.27 0.32 0.45 0.47 0.31 0.20 0.16 0.18 0.28 0.46 0.65
0.21 0.22 0.27 0.32 0.43 0.44 0.39 0.41 0.32 0.21 0.11 0.09 0.11 0.06 0.04 0.03 0.01 0.00 0.00 0.00 0.00 0.01 0.00 0.02 0.05 0.08 0.13 0.24 0.19 0.26 0.25 0.06 0.02 0.00 0.02 0.07 0.35 0.70 0.52 0.54 0.33 0.71 0.76 0.78 0.48 0.44 0.49
0.14 0.16 0.18 0.22 0.28 0.30 0.26 0.26 0.21 0.13 0.03 0.02 0.04 0.03 0.01 0.00 0.00 0.00 0.00 0.00 0.00 0.00 0.01 0.00 0.01 0.01 0.02 0.02 0.13 0.11 0.19 0.14 0.12 0.06 0.04 0.03 0.22 0.68 1.30 0.83 0.32 0.78 0.94 0.71 0.37 0.40 0.44
0.13 0.08 0.10 0.16 0.18 0.16 0.12 0.11 0.13 0.04 0.00 0.01 0.00 0.00 0.00 0.00 0.00 0.00 0.00 0.00 0.00 0.00 0.00 0.00 0.00 0.00 0.00 0.00 0.00 0.00 0.01 0.00 0.00 0.03 0.04 0.03 0.05 0.16 0.47 0.42 0.14 0.47 0.81 0.47 0.25 0.20 0.13
0.15 0.05 0.05 0.08 0.07 0.06 0.04 0.03 0.02 0.01 0.00 0.01 0.00 0.00 0.00 0.01 0.00 0.00 0.00 0.00 0.00 0.00 0.00 0.00 0.00 0.00 0.00 0.00 0.00 0.00 0.00 0.00 0.00 0.00 0.00 0.01 0.04 0.04 0.18 0.16 0.40 0.83 0.37 0.22 0.13 0.15 0.11
0.15 0.05 0.04 0.04 0.02 0.01 0.00 0.00 0.00 0.00 0.00 0.00 0.00 0.00 0.00 0.01 0.00 0.00 0.00 0.00 0.00 0.00 0.00 0.00 0.00 0.00 0.00 0.00 0.00 0.00 0.01 0.01 0.00 0.00 0.00 0.00 0.03 0.12 0.13 0.14 0.33 0.24 0.06 0.06 0.13 0.14 0.11
0.17 0.06 0.03 0.04 0.00 0.01 0.00 0.00 0.00 0.00 0.01 0.01 0.01 0.00 0.01 0.02 0.03 0.00 0.00 0.00 0.00 0.00 0.00 0.00 0.00 0.00 0.00 0.00 0.00 0.01 0.01 0.01 0.02 0.02 0.00 0.00 0.04 0.14 0.05 0.07 0.20 0.16 0.02 0.00 0.02 0.13 0.07
0.17 0.08 0.06 0.03 0.00 0.00 0.00 0.00 0.00 0.00 0.01 0.01 0.02 0.00 0.01 0.02 0.01 0.00 0.00 0.00 0.00 0.00 0.00 0.00 0.00 0.00 0.00 0.01 0.03 0.01 0.03 0.01 0.08 0.03 0.01 0.00 0.04 0.14 0.06 0.06 0.05 0.02 0.04 0.02 0.11 0.23 0.09
0.11 0.10 0.08 0.04 0.01 0.00 0.00 0.00 0.00 0.00 0.01 0.04 0.04 0.00 0.02 0.03 0.01 0.00 0.00 0.00 0.00 0.00 0.00 0.00 0.00 0.00 0.00 0.01 0.01 0.01 0.02 0.02 0.13 0.05 0.02 0.02 0.11 0.06 0.09 0.06 0.07 0.02 0.03 0.07 0.13 0.10 0.06
0.10 0.12 0.09 0.04 0.02 0.01 0.00 0.00 0.00 0.00 0.01 0.06 0.08 0.03 0.01 0.02 0.00 0.00 0.00 0.00 0.00 0.00 0.00 0.00 0.01 0.03 0.02 0.03 0.02 0.01 0.03 0.03 0.03 0.31 0.01 0.04 0.02 0.02 0.06 0.07 0.10 0.06 0.07 0.07 0.02 0.03 0.03

GFSGBSN_prec_precacc24_132.txt.gz
Total_Precipitation_Accumulation
0.06 0.05 0.04 0.03 0.03 0.02 0.01 0.01 0.01 0.01 0.01 0.00 0.00 0.00 0.00 0.00 0.00 0.00 0.00 0.00 0.00 0.00 0.00 0.00 0.00 0.00 0.00 0.00 0.00 0.00 0.00 0.00 0.00 0.00 0.00 0.00 0.00 0.00 0.00 0.00 0.00 0.00 0.00 0.00 0.00 0.00 0.00
0.08 0.07 0.06 0.05 0.05 0.04 0.03 0.02 0.02 0.01 0.01 0.00 0.00 0.00 0.00 0.00 0.00 0.00 0.00 0.00 0.00 0.00 0.00 0.00 0.00 0.00 0.00 0.00 0.00 0.00 0.00 0.00 0.00 0.00 0.00 0.00 0.00 0.00 0.00 0.00 0.00 0.00 0.00 0.00 0.00 0.00 0.00
0.07 0.07 0.07 0.06 0.05 0.04 0.04 0.03 0.02 0.01 0.01 0.01 0.01 0.00 0.00 0.00 0.00 0.00 0.00 0.00 0.00 0.00 0.00 0.00 0.00 0.00 0.00 0.00 0.00 0.00 0.00 0.00 0.00 0.00 0.00 0.00 0.00 0.00 0.00 0.00 0.00 0.00 0.00 0.00 0.00 0.00 0.00
0.11 0.10 0.10 0.10 0.08 0.09 0.07 0.05 0.04 0.04 0.02 0.02 0.01 0.01 0.00 0.00 0.00 0.00 0.00 0.00 0.00 0.00 0.00 0.00 0.00 0.00 0.00 0.00 0.00 0.00 0.00 0.00 0.00 0.00 0.00 0.00 0.00 0.00 0.00 0.00 0.00 0.00 0.00 0.00 0.00 0.00 0.00
0.16 0.16 0.15 0.11 0.09 0.09 0.08 0.07 0.06 0.05 0.04 0.03 0.02 0.01 0.01 0.01 0.00 0.00 0.00 0.00 0.00 0.00 0.00 0.00 0.00 0.00 0.00 0.00 0.00 0.00 0.00 0.00 0.00 0.00 0.00 0.00 0.00 0.00 0.00 0.00 0.00 0.00 0.00 0.00 0.00 0.00 0.00
0.17 0.16 0.13 0.12 0.12 0.10 0.09 0.09 0.08 0.06 0.05 0.05 0.04 0.02 0.01 0.01 0.01 0.00 0.00 0.00 0.00 0.00 0.00 0.00 0.00 0.00 0.00 0.00 0.00 0.00 0.00 0.00 0.00 0.00 0.00 0.00 0.00 0.00 0.00 0.00 0.00 0.00 0.00 0.00 0.00 0.00 0.00
0.17 0.19 0.18 0.16 0.11 0.11 0.15 0.15 0.13 0.10 0.09 0.06 0.04 0.02 0.01 0.01 0.01 0.00 0.00 0.00 0.00 0.00 0.00 0.00 0.00 0.00 0.00 0.00 0.00 0.00 0.00 0.00 0.00 0.00 0.00 0.00 0.00 0.00 0.00 0.00 0.00 0.00 0.00 0.00 0.00 0.00 0.00
0.19 0.19 0.19 0.17 0.17 0.17 0.15 0.13 0.13 0.13 0.11 0.08 0.07 0.06 0.03 0.02 0.03 0.01 0.00 0.00 0.00 0.00 0.00 0.00 0.00 0.00 0.00 0.00 0.00 0.00 0.00 0.00 0.00 0.00 0.00 0.00 0.00 0.00 0.00 0.00 0.00 0.00 0.00 0.00 0.00 0.00 0.00
0.29 0.28 0.29 0.27 0.21 0.17 0.17 0.15 0.11 0.08 0.11 0.10 0.06 0.05 0.05 0.05 0.03 0.01 0.00 0.00 0.00 0.00 0.00 0.00 0.00 0.00 0.00 0.00 0.00 0.00 0.00 0.00 0.01 0.01 0.00 0.00 0.00 0.00 0.00 0.00 0.00 0.00 0.00 0.00 0.00 0.00 0.00
0.34 0.29 0.26 0.21 0.17 0.17 0.16 0.17 0.15 0.10 0.07 0.06 0.06 0.06 0.08 0.07 0.03 0.00 0.00 0.00 0.00 0.00 0.08 0.03 0.00 0.00 0.00 0.01 0.00 0.00 0.00 0.05 0.07 0.05 0.03 0.01 0.00 0.00 0.00 0.00 0.01 0.00 0.00 0.00 0.00 0.01 0.04
0.38 0.32 0.28 0.21 0.16 0.14 0.14 0.11 0.12 0.11 0.10 0.08 0.07 0.06 0.04 0.02 0.01 0.01 0.01 0.00 0.01 0.06 0.32 0.05 0.00 0.00 0.00 0.00 0.00 0.01 0.00 0.01 0.03 0.03 0.05 0.03 0.01 0.01 0.01 0.00 0.02 0.01 0.01 0.00 0.01 0.04 0.02
0.46 0.43 0.40 0.35 0.26 0.18 0.14 0.11 0.10 0.07 0.06 0.07 0.08 0.09 0.04 0.01 0.01 0.00 0.00 0.01 0.07 0.26 0.31 0.04 0.00 0.00 0.00 0.00 0.00 0.00 0.00 0.00 0.01 0.01 0.00 0.00 0.00 0.01 0.00 0.00 0.01 0.01 0.01 0.03 0.06 0.07 0.06
0.64 0.58 0.51 0.43 0.36 0.29 0.22 0.14 0.11 0.09 0.08 0.08 0.07 0.04 0.02 0.02 0.03 0.01 0.02 0.07 0.24 0.27 0.06 0.02 0.00 0.00 0.00 0.00 0.00 0.00 0.00 0.00 0.02 0.03 0.01 0.00 0.00 0.00 0.01 0.00 0.01 0.02 0.04 0.06 0.05 0.09 0.02
0.80 0.75 0.64 0.46 0.37 0.30 0.26 0.21 0.16 0.15 0.13 0.14 0.14 0.10 0.04 0.02 0.02 0.05 0.05 0.14 0.29 0.08 0.01 0.00 0.00 0.00 0.00 0.00 0.01 0.00 0.00 0.00 0.00 0.02 0.03 0.00 0.01 0.01 0.00 0.00 0.01 0.01 0.02 0.03 0.05 0.03 0.04
1.09 0.89 0.72 0.58 0.49 0.34 0.29 0.27 0.27 0.22 0.20 0.22 0.26 0.18 0.07 0.03 0.02 0.03 0.13 0.30 0.12 0.01 0.01 0.01 0.01 0.01 0.00 0.00 0.01 0.00 0.00 0.01 0.06 0.09 0.12 0.07 0.05 0.02 0.01 0.03 0.08 0.05 0.01 0.01 0.04 0.09 0.11
1.89 1.79 1.16 0.97 0.72 0.58 0.41 0.36 0.39 0.32 0.24 0.25 0.22 0.21 0.18 0.06 0.04 0.09 0.21 0.17 0.04 0.01 0.01 0.01 0.01 0.01 0.01 0.01 0.02 0.02 0.04 0.06 0.05 0.03 0.05 0.09 0.31 0.10 0.03 0.05 0.05 0.05 0.06 0.11 0.15 0.15 0.31
1.67 1.78 2.06 1.51 1.08 0.81 0.68 0.58 0.49 0.45 0.35 0.30 0.26 0.46 0.36 0.11 0.14 0.25 0.21 0.05 0.00 0.01 0.01 0.01 0.01 0.01 0.01 0.05 0.03 0.02 0.06 0.12 0.07 0.02 0.01 0.09 0.41 0.27 0.10 0.12 0.12 0.08 0.05 0.06 0.09 0.20 0.48
0.97 1.20 1.29 1.56 1.45 1.09 0.96 0.66 0.52 0.48 0.50 0.35 0.34 0.46 0.44 0.18 0.28 0.27 0.08 0.02 0.00 0.00 0.00 0.01 0.01 0.01 0.02 0.03 0.01 0.02 0.03 0.32 0.13 0.02 0.03 0.09 0.75 0.58 0.18 0.11 0.17 0.21 0.14 0.08 0.16 0.23 0.36
0.40 0.55 0.72 0.91 1.18 1.29 1.15 0.88 0.59 0.50 0.39 0.32 0.41 0.51 0.50 0.25 0.20 0.10 0.01 0.01 0.00 0.00 0.00 0.00 0.01 0.01 0.00 0.01 0.07 0.03 0.11 0.10 0.05 0.03 0.10 0.20 0.64 0.24 0.15 0.39 0.19 0.11 0.15 0.17 0.21 0.38 0.77
0.22 0.32 0.43 0.52 0.78 1.04 1.14 1.16 1.24 0.94 0.60 0.20 0.21 0.60 0.71 0.54 0.22 0.02 0.02 0.02 0.00 0.00 0.00 0.00 0.00 0.00 0.00 0.00 0.03 0.06 0.07 0.02 0.00 0.00 0.01 0.22 0.22 0.25 0.35 0.45 0.29 0.14 0.10 0.16 0.28 0.53 0.77
0.20 0.22 0.32 0.39 0.58 0.72 0.91 0.92 0.93 0.83 0.52 0.26 0.18 0.13 0.18 0.22 0.16 0.03 0.03 0.02 0.00 0.00 0.00 0.00 0.00 0.00 0.01 0.01 0.01 0.00 0.01 0.00 0.00 0.00 0.01 0.04 0.23 0.55 0.41 0.51 0.31 0.64 0.70 0.76 0.45 0.45 0.54
0.13 0.16 0.20 0.31 0.42 0.48 0.58 0.72 0.69 0.52 0.25 0.20 0.17 0.09 0.03 0.02 0.02 0.03 0.04 0.02 0.01 0.00 0.00 0.00 0.00 0.00 0.00 0.00 0.01 0.01 0.03 0.00 0.00 0.00 0.01 0.02 0.22 0.67 1.17 0.76 0.30 0.74 0.93 0.73 0.38 0.40 0.42
0.11 0.09 0.10 0.22 0.33 0.37 0.36 0.47 0.63 0.46 0.28 0.24 0.11 0.04 0.04 0.07 0.05 0.05 0.04 0.00 0.00 0.01 0.00 0.00 0.00 0.00 0.00 0.00 0.00 0.00 0.01 0.00 0.00 0.00 0.01 0.01 0.07 0.17 0.52 0.43 0.16 0.50 0.82 0.47 0.25 0.20 0.12
0.14 0.06 0.07 0.11 0.16 0.29 0.35 0.31 0.33 0.31 0.24 0.22 0.10 0.07 0.07 0.10 0.04 0.02 0.01 0.01 0.01 0.00 0.01 0.00 0.00 0.00 0.00 0.00 0.00 0.00 0.00 0.00 0.00 0.00 0.00 0.01 0.04 0.06 0.25 0.19 0.43 0.82 0.37 0.22 0.12 0.15 0.10
0.14 0.05 0.09 0.10 0.09 0.18 0.23 0.23 0.11 0.05 0.08 0.13 0.13 0.09 0.10 0.07 0.04 0.06 0.03 0.02 0.01 0.01 0.00 0.00 0.00 0.00 0.00 0.00 0.00 0.00 0.00 0.00 0.00 0.00 0.00 0.00 0.04 0.14 0.20 0.22 0.35 0.22 0.06 0.07 0.11 0.12 0.11
0.17 0.06 0.08 0.10 0.07 0.13 0.18 0.16 0.05 0.00 0.01 0.02 0.01 0.02 0.02 0.04 0.07 0.02 0.01 0.01 0.01 0.00 0.00 0.00 0.00 0.00 0.00 0.00 0.00 0.00 0.00 0.01 0.03 0.01 0.00 0.00 0.04 0.15 0.08 0.14 0.21 0.09 0.01 0.00 0.02 0.09 0.06
0.19 0.09 0.06 0.03 0.05 0.10 0.15 0.11 0.04 0.02 0.02 0.01 0.01 0.00 0.03 0.01 0.00 0.00 0.00 0.00 0.00 0.00 0.00 0.00 0.00 0.00 0.00 0.00 0.00 0.00 0.00 0.01 0.08 0.02 0.01 0.01 0.05 0.15 0.08 0.10 0.08 0.01 0.04 0.02 0.08 0.17 0.07
0.14 0.12 0.08 0.02 0.01 0.05 0.07 0.06 0.02 0.01 0.00 0.00 0.02 0.02 0.03 0.03 0.01 0.00 0.00 0.00 0.00 0.00 0.00 0.00 0.00 0.00 0.00 0.00 0.00 0.00 0.00 0.02 0.09 0.02 0.01 0.01 0.05 0.05 0.09 0.07 0.09 0.02 0.03 0.06 0.10 0.07 0.04
0.14 0.14 0.08 0.01 0.01 0.02 0.03 0.02 0.01 0.00 0.00 0.00 0.04 0.04 0.01 0.00 0.01 0.00 0.00 0.00 0.00 0.00 0.00 0.00 0.00 0.01 0.00 0.00 0.00 0.00 0.00 0.01 0.01 0.11 0.00 0.01 0.00 0.03 0.05 0.07 0.08 0.05 0.06 0.05 0.01 0.02 0.01

GFSGBSN_prec_precacc24_138.txt.gz
Total_Precipitation_Accumulation
0.06 0.05 0.04 0.03 0.03 0.02 0.01 0.01 0.02 0.02 0.02 0.01 0.01 0.00 0.00 0.00 0.00 0.00 0.00 0.00 0.00 0.00 0.00 0.00 0.00 0.00 0.00 0.00 0.00 0.00 0.00 0.00 0.00 0.00 0.00 0.00 0.00 0.00 0.00 0.00 0.00 0.00 0.00 0.00 0.00 0.00 0.00
0.07 0.07 0.06 0.05 0.05 0.04 0.03 0.02 0.02 0.02 0.02 0.03 0.02 0.01 0.00 0.00 0.00 0.00 0.00 0.00 0.00 0.00 0.00 0.00 0.00 0.00 0.00 0.00 0.00 0.00 0.00 0.00 0.00 0.00 0.00 0.00 0.00 0.00 0.00 0.00 0.00 0.00 0.00 0.00 0.00 0.00 0.00
0.07 0.07 0.07 0.06 0.05 0.04 0.04 0.03 0.03 0.02 0.02 0.02 0.03 0.03 0.01 0.00 0.00 0.00 0.00 0.00 0.00 0.00 0.00 0.00 0.00 0.00 0.00 0.00 0.00 0.00 0.00 0.00 0.00 0.00 0.00 0.00 0.00 0.00 0.00 0.00 0.00 0.00 0.00 0.00 0.00 0.00 0.00
0.09 0.09 0.10 0.10 0.08 0.09 0.07 0.05 0.04 0.04 0.04 0.04 0.03 0.03 0.02 0.01 0.00 0.00 0.00 0.00 0.00 0.00 0.00 0.00 0.00 0.00 0.00 0.00 0.00 0.00 0.00 0.00 0.00 0.00 0.00 0.00 0.00 0.00 0.00 0.00 0.00 0.00 0.00 0.00 0.00 0.00 0.00
0.08 0.10 0.12 0.10 0.09 0.09 0.08 0.07 0.06 0.05 0.04 0.04 0.04 0.03 0.02 0.01 0.01 0.00 0.00 0.00 0.00 0.00 0.00 0.00 0.00 0.00 0.00 0.00 0.00 0.00 0.00 0.00 0.00 0.00 0.00 0.00 0.00 0.00 0.00 0.00 0.00 0.00 0.00 0.00 0.00 0.00 0.00
0.08 0.10 0.10 0.10 0.11 0.10 0.10 0.10 0.08 0.06 0.05 0.05 0.04 0.03 0.03 0.03 0.03 0.02 0.01 0.00 0.00 0.00 0.00 0.00 0.00 0.00 0.00 0.00 0.00 0.00 0.00 0.00 0.00 0.00 0.00 0.00 0.00 0.00 0.00 0.00 0.00 0.00 0.00 0.00 0.00 0.00 0.00
0.08 0.13 0.15 0.14 0.10 0.11 0.15 0.16 0.14 0.11 0.09 0.06 0.04 0.02 0.01 0.01 0.01 0.02 0.00 0.00 0.00 0.00 0.00 0.00 0.00 0.00 0.00 0.00 0.00 0.00 0.00 0.00 0.00 0.00 0.00 0.00 0.00 0.00 0.00 0.00 0.00 0.00 0.00 0.00 0.00 0.00 0.00
0.09 0.11 0.15 0.15 0.16 0.16 0.14 0.13 0.13 0.14 0.12 0.09 0.07 0.06 0.03 0.03 0.04 0.03 0.00 0.00 0.00 0.00 0.00 0.00 0.00 0.00 0.00 0.00 0.00 0.00 0.00 0.00 0.00 0.00 0.00 0.00 0.00 0.00 0.00 0.00 0.00 0.00 0.00 0.00 0.00 0.00 0.00
0.11 0.14 0.17 0.21 0.18 0.16 0.17 0.15 0.11 0.09 0.11 0.11 0.06 0.05 0.05 0.07 0.06 0.02 0.00 0.00 0.00 0.00 0.00 0.00 0.00 0.00 0.00 0.00 0.00 0.00 0.00 0.00 0.00 0.00 0.00 0.00 0.00 0.00 0.00 0.00 0.00 0.00 0.00 0.00 0.00 0.00 0.00
0.18 0.17 0.17 0.16 0.15 0.15 0.15 0.18 0.16 0.11 0.08 0.06 0.06 0.06 0.10 0.09 0.04 0.00 0.00 0.00 0.00 0.00 0.09 0.03 0.00 0.00 0.00 0.00 0.00 0.00 0.00 0.00 0.00 0.00 0.00 0.00 0.00 0.00 0.00 0.00 0.00 0.00 0.00 0.00 0.00 0.00 0.00
0.19 0.19 0.18 0.15 0.13 0.12 0.13 0.11 0.12 0.11 0.11 0.09 0.07 0.06 0.06 0.02 0.01 0.01 0.01 0.00 0.01 0.06 0.37 0.05 0.00 0.00 0.00 0.00 0.00 0.00 0.00 0.00 0.00 0.00 0.00 0.00 0.00 0.00 0.00 0.00 0.00 0.00 0.01 0.00 0.01 0.01 0.00
0.30 0.29 0.26 0.21 0.16 0.13 0.12 0.10 0.10 0.07 0.06 0.08 0.09 0.09 0.06 0.02 0.01 0.00 0.00 0.01 0.07 0.34 0.40 0.04 0.00 0.00 0.00 0.00 0.00 0.00 0.00 0.00 0.00 0.00 0.00 0.00 0.00 0.00 0.00 0.00 0.00 0.00 0.00 0.00 0.01 0.01 0.01
0.41 0.38 0.33 0.27 0.25 0.23 0.19 0.12 0.10 0.09 0.09 0.09 0.08 0.05 0.04 0.03 0.03 0.01 0.02 0.07 0.29 0.35 0.06 0.02 0.00 0.00 0.00 0.00 0.00 0.00 0.00 0.00 0.00 0.00 0.00 0.00 0.00 0.00 0.00 0.00 0.00 0.00 0.00 0.03 0.01 0.03 0.00
0.56 0.55 0.47 0.33 0.29 0.26 0.25 0.20 0.16 0.16 0.14 0.16 0.15 0.11 0.06 0.03 0.02 0.05 0.05 0.15 0.34 0.09 0.01 0.00 0.00 0.00 0.00 0.00 0.00 0.00 0.00 0.00 0.00 0.02 0.02 0.00 0.00 0.00 0.00 0.00 0.00 0.00 0.00 0.02 0.02 0.02 0.04
0.88 0.75 0.62 0.50 0.43 0.31 0.27 0.27 0.27 0.23 0.22 0.24 0.28 0.20 0.09 0.04 0.03 0.03 0.14 0.34 0.13 0.01 0.01 0.01 0.01 0.01 0.00 0.00 0.00 0.00 0.00 0.01 0.03 0.06 0.11 0.01 0.00 0.00 0.00 0.01 0.01 0.03 0.00 0.00 0.00 0.03 0.08
1.80 1.72 1.10 0.92 0.69 0.56 0.40 0.35 0.39 0.33 0.24 0.26 0.25 0.28 0.21 0.07 0.06 0.11 0.26 0.18 0.04 0.01 0.01 0.02 0.02 0.00 0.00 0.00 0.00 0.00 0.00 0.01 0.01 0.01 0.05 0.03 0.06 0.00 0.00 0.00 0.00 0.03 0.05 0.07 0.06 0.06 0.16
1.63 1.75 2.03 1.49 1.07 0.81 0.68 0.59 0.50 0.46 0.36 0.33 0.36 0.59 0.38 0.14 0.26 0.41 0.32 0.06 0.00 0.01 0.02 0.04 0.02 0.00 0.00 0.00 0.00 0.01 0.01 0.01 0.01 0.00 0.00 0.06 0.13 0.03 0.01 0.02 0.06 0.06 0.02 0.03 0.06 0.10 0.22
0.94 1.18 1.27 1.55 1.45 1.09 0.97 0.67 0.53 0.49 0.52 0.45 0.47 0.53 0.47 0.25 0.57 0.49 0.15 0.02 0.00 0.00 0.00 0.01 0.01 0.00 0.00 0.00 0.00 0.00 0.00 0.01 0.00 0.00 0.01 0.03 0.17 0.15 0.07 0.02 0.11 0.10 0.07 0.05 0.11 0.09 0.15
0.36 0.54 0.72 0.90 1.18 1.33 1.16 0.88 0.59 0.51 0.41 0.34 0.53 0.64 0.70 0.29 0.27 0.18 0.03 0.02 0.01 0.00 0.00 0.00 0.00 0.01 0.00 0.00 0.01 0.00 0.00 0.00 0.00 0.00 0.01 0.09 0.24 0.08 0.07 0.14 0.09 0.07 0.11 0.11 0.13 0.19 0.42
0.19 0.31 0.42 0.51 0.80 1.06 1.14 1.17 1.33 1.28 0.94 0.28 0.25 0.81 1.32 1.08 0.32 0.03 0.02 0.03 0.01 0.00 0.00 0.00 0.00 0.00 0.00 0.00 0.00 0.00 0.00 0.00 0.00 0.00 0.00 0.16 0.18 0.23 0.30 0.31 0.22 0.10 0.03 0.04 0.13 0.31 0.40
0.20 0.23 0.32 0.38 0.59 0.74 0.91 0.93 0.98 1.10 1.01 0.64 0.37 0.22 0.37 0.57 0.48 0.18 0.05 0.03 0.01 0.01 0.00 0.01 0.00 0.00 0.01 0.01 0.01 0.00 0.00 0.00 0.00 0.00 0.00 0.04 0.24 0.41 0.32 0.36 0.18 0.25 0.33 0.31 0.13 0.23 0.30
0.13 0.17 0.20 0.30 0.42 0.50 0.58 0.73 0.75 0.71 0.57 0.60 0.64 0.32 0.12 0.05 0.09 0.18 0.12 0.07 0.02 0.01 0.01 0.00 0.00 0.00 0.00 0.00 0.00 0.00 0.00 0.01 0.01 0.01 0.01 0.02 0.12 0.31 0.45 0.33 0.18 0.45 0.75 0.58 0.23 0.23 0.19
0.13 0.11 0.11 0.21 0.33 0.39 0.37 0.49 0.69 0.62 0.56 0.67 0.52 0.30 0.20 0.24 0.19 0.24 0.17 0.03 0.02 0.02 0.01 0.00 0.00 0.00 0.00 0.00 0.00 0.00 0.00 0.00 0.00 0.01 0.01 0.02 0.06 0.09 0.26 0.14 0.11 0.29 0.68 0.44 0.21 0.15 0.09
0.15 0.08 0.08 0.10 0.17 0.35 0.38 0.35 0.40 0.47 0.49 0.59 0.39 0.23 0.26 0.30 0.17 0.11 0.05 0.02 0.03 0.01 0.01 0.00 0.00 0.00 0.00 0.00 0.00 0.00 0.00 0.00 0.02 0.02 0.02 0.03 0.06 0.09 0.21 0.16 0.26 0.35 0.29 0.21 0.12 0.13 0.09
0.15 0.08 0.11 0.10 0.10 0.23 0.34 0.28 0.18 0.14 0.25 0.38 0.42 0.19 0.17 0.14 0.10 0.12 0.09 0.05 0.03 0.02 0.02 0.01 0.00 0.00 0.00 0.00 0.00 0.01 0.02 0.02 0.01 0.04 0.04 0.04 0.10 0.18 0.18 0.17 0.18 0.17 0.06 0.06 0.08 0.09 0.09
0.22 0.07 0.08 0.10 0.08 0.15 0.25 0.25 0.08 0.03 0.09 0.18 0.20 0.14 0.11 0.12 0.14 0.04 0.02 0.03 0.04 0.01 0.04 0.06 0.00 0.00 0.00 0.00 0.00 0.01 0.02 0.01 0.02 0.01 0.05 0.04 0.07 0.17 0.09 0.16 0.16 0.07 0.01 0.00 0.01 0.06 0.04
0.25 0.12 0.06 0.03 0.06 0.12 0.20 0.18 0.06 0.05 0.11 0.08 0.07 0.07 0.11 0.09 0.03 0.03 0.05 0.08 0.03 0.02 0.06 0.03 0.00 0.00 0.00 0.00 0.02 0.01 0.00 0.00 0.01 0.00 0.02 0.04 0.06 0.15 0.07 0.09 0.08 0.01 0.04 0.02 0.07 0.10 0.03
0.19 0.16 0.07 0.01 0.04 0.10 0.14 0.14 0.07 0.12 0.12 0.04 0.04 0.06 0.12 0.09 0.04 0.03 0.01 0.02 0.03 0.02 0.01 0.01 0.03 0.03 0.00 0.00 0.01 0.00 0.00 0.01 0.03 0.01 0.01 0.01 0.02 0.06 0.09 0.07 0.09 0.02 0.03 0.03 0.04 0.02 0.01
0.23 0.17 0.08 0.01 0.02 0.05 0.08 0.07 0.09 0.09 0.08 0.06 0.15 0.16 0.15 0.06 0.07 0.02 0.01 0.01 0.01 0.00 0.00 0.01 0.01 0.00 0.00 0.00 0.00 0.00 0.00 0.01 0.02 0.01 0.01 0.00 0.00 0.03 0.04 0.05 0.04 0.03 0.03 0.01 0.00 0.00 0.00

GFSGBSN_prec_precacc24_141.txt.gz
Total_Precipitation_Accumulation
0.06 0.05 0.04 0.03 0.03 0.02 0.01 0.01 0.02 0.03 0.03 0.02 0.01 0.00 0.00 0.00 0.00 0.00 0.00 0.00 0.00 0.00 0.00 0.00 0.00 0.00 0.00 0.00 0.00 0.00 0.00 0.00 0.00 0.00 0.00 0.00 0.00 0.00 0.00 0.00 0.00 0.00 0.00 0.00 0.00 0.00 0.00
0.07 0.07 0.06 0.05 0.05 0.04 0.03 0.02 0.02 0.02 0.03 0.03 0.03 0.02 0.01 0.00 0.00 0.00 0.00 0.00 0.00 0.00 0.00 0.00 0.00 0.00 0.00 0.00 0.00 0.00 0.00 0.00 0.00 0.00 0.00 0.00 0.00 0.00 0.00 0.00 0.00 0.00 0.00 0.00 0.00 0.00 0.00
0.06 0.06 0.06 0.06 0.05 0.04 0.04 0.03 0.03 0.02 0.02 0.02 0.03 0.03 0.02 0.01 0.00 0.00 0.00 0.00 0.00 0.00 0.00 0.00 0.00 0.00 0.00 0.00 0.00 0.00 0.00 0.00 0.00 0.00 0.00 0.00 0.00 0.00 0.00 0.00 0.00 0.00 0.00 0.00 0.00 0.00 0.00
0.06 0.07 0.09 0.10 0.08 0.09 0.07 0.05 0.04 0.04 0.04 0.04 0.03 0.04 0.03 0.02 0.00 0.00 0.00 0.00 0.00 0.00 0.00 0.00 0.00 0.00 0.00 0.00 0.00 0.00 0.00 0.00 0.00 0.00 0.00 0.00 0.00 0.00 0.00 0.00 0.00 0.00 0.00 0.00 0.00 0.00 0.00
0.05 0.07 0.08 0.07 0.08 0.09 0.08 0.07 0.06 0.05 0.04 0.04 0.04 0.03 0.02 0.02 0.01 0.01 0.00 0.00 0.00 0.00 0.00 0.00 0.00 0.00 0.00 0.00 0.00 0.00 0.00 0.00 0.00 0.00 0.00 0.00 0.00 0.00 0.00 0.00 0.00 0.00 0.00 0.00 0.00 0.00 0.00
0.04 0.06 0.05 0.07 0.09 0.09 0.09 0.09 0.08 0.05 0.05 0.05 0.04 0.03 0.03 0.04 0.04 0.03 0.01 0.00 0.00 0.00 0.00 0.00 0.00 0.00 0.00 0.00 0.00 0.00 0.00 0.00 0.00 0.00 0.00 0.00 0.00 0.00 0.00 0.00 0.00 0.00 0.00 0.00 0.00 0.00 0.00
0.03 0.06 0.08 0.08 0.06 0.06 0.13 0.15 0.13 0.11 0.09 0.06 0.04 0.02 0.01 0.01 0.02 0.02 0.00 0.00 0.00 0.00 0.00 0.00 0.00 0.00 0.00 0.00 0.00 0.00 0.00 0.00 0.00 0.00 0.00 0.00 0.00 0.00 0.00 0.00 0.00 0.00 0.00 0.00 0.00 0.00 0.00
0.03 0.03 0.05 0.06 0.09 0.10 0.10 0.11 0.12 0.14 0.12 0.10 0.07 0.06 0.03 0.03 0.04 0.03 0.00 0.00 0.00 0.00 0.00 0.00 0.00 0.00 0.00 0.00 0.00 0.00 0.00 0.00 0.00 0.00 0.00 0.00 0.00 0.00 0.00 0.00 0.00 0.00 0.00 0.00 0.00 0.00 0.00
0.03 0.05 0.06 0.08 0.10 0.11 0.14 0.14 0.11 0.09 0.11 0.11 0.07 0.06 0.05 0.07 0.06 0.02 0.00 0.00 0.00 0.00 0.00 0.00 0.00 0.00 0.00 0.00 0.00 0.00 0.00 0.00 0.00 0.00 0.00 0.00 0.00 0.00 0.00 0.00 0.00 0.00 0.00 0.00 0.00 0.00 0.00
0.04 0.06 0.08 0.08 0.08 0.10 0.10 0.13 0.14 0.11 0.09 0.06 0.07 0.07 0.10 0.09 0.04 0.00 0.00 0.00 0.00 0.00 0.09 0.03 0.00 0.00 0.00 0.00 0.00 0.00 0.00 0.00 0.00 0.00 0.00 0.00 0.00 0.00 0.00 0.00 0.00 0.00 0.00 0.00 0.00 0.00 0.00
0.05 0.05 0.08 0.09 0.09 0.08 0.08 0.07 0.08 0.09 0.11 0.10 0.08 0.06 0.06 0.02 0.01 0.01 0.01 0.00 0.01 0.06 0.37 0.05 0.00 0.00 0.00 0.00 0.00 0.00 0.00 0.00 0.00 0.00 0.00 0.00 0.00 0.00 0.00 0.00 0.00 0.00 0.00 0.00 0.00 0.00 0.00
0.07 0.06 0.09 0.12 0.12 0.09 0.08 0.06 0.07 0.06 0.06 0.08 0.10 0.10 0.06 0.02 0.01 0.00 0.00 0.01 0.07 0.34 0.40 0.04 0.00 0.00 0.00 0.00 0.00 0.00 0.00 0.00 0.00 0.00 0.00 0.00 0.00 0.00 0.00 0.00 0.00 0.00 0.00 0.00 0.00 0.00 0.01
0.13 0.17 0.21 0.18 0.17 0.15 0.11 0.08 0.09 0.09 0.09 0.10 0.09 0.06 0.04 0.03 0.03 0.01 0.02 0.07 0.29 0.35 0.06 0.02 0.00 0.00 0.00 0.00 0.00 0.00 0.00 0.00 0.00 0.00 0.00 0.00 0.00 0.00 0.00 0.00 0.00 0.00 0.00 0.00 0.00 0.01 0.00
0.24 0.26 0.27 0.23 0.20 0.16 0.18 0.18 0.15 0.16 0.15 0.16 0.16 0.13 0.07 0.04 0.02 0.05 0.05 0.15 0.34 0.09 0.01 0.00 0.00 0.00 0.00 0.00 0.00 0.00 0.00 0.00 0.00 0.00 0.00 0.00 0.00 0.00 0.00 0.00 0.00 0.00 0.00 0.00 0.02 0.01 0.03
0.50 0.46 0.38 0.35 0.32 0.24 0.24 0.25 0.26 0.22 0.22 0.24 0.29 0.22 0.12 0.05 0.03 0.03 0.14 0.34 0.13 0.01 0.01 0.01 0.01 0.01 0.00 0.00 0.00 0.00 0.00 0.00 0.00 0.02 0.08 0.01 0.00 0.00 0.00 0.00 0.00 0.00 0.00 0.00 0.00 0.01 0.05
1.37 1.36 0.82 0.69 0.57 0.52 0.37 0.34 0.38 0.32 0.25 0.26 0.25 0.29 0.23 0.08 0.06 0.12 0.27 0.19 0.04 0.01 0.01 0.02 0.02 0.00 0.00 0.00 0.00 0.00 0.00 0.00 0.00 0.01 0.05 0.03 0.05 0.00 0.00 0.00 0.00 0.00 0.01 0.04 0.05 0.05 0.12
1.30 1.54 1.80 1.34 1.02 0.78 0.66 0.57 0.50 0.46 0.36 0.34 0.37 0.60 0.38 0.14 0.26 0.45 0.34 0.06 0.00 0.01 0.02 0.04 0.02 0.00 0.00 0.00 0.00 0.00 0.00 0.00 0.00 0.00 0.00 0.05 0.11 0.01 0.01 0.00 0.01 0.03 0.02 0.02 0.05 0.08 0.19
0.81 1.08 1.22 1.53 1.44 1.08 0.96 0.66 0.54 0.50 0.53 0.48 0.48 0.54 0.48 0.26 0.58 0.51 0.16 0.02 0.00 0.00 0.00 0.01 0.01 0.00 0.00 0.00 0.00 0.00 0.00 0.00 0.00 0.00 0.00 0.02 0.10 0.06 0.00 0.00 0.01 0.04 0.05 0.06 0.14 0.08 0.13
0.32 0.51 0.72 0.90 1.19 1.34 1.16 0.88 0.59 0.52 0.42 0.36 0.55 0.65 0.73 0.30 0.28 0.18 0.03 0.02 0.01 0.00 0.00 0.00 0.00 0.01 0.00 0.00 0.01 0.00 0.00 0.00 0.00 0.00 0.01 0.09 0.15 0.06 0.03 0.05 0.02 0.06 0.09 0.10 0.12 0.14 0.12
0.18 0.30 0.42 0.52 0.80 1.07 1.14 1.18 1.34 1.29 0.94 0.31 0.28 0.83 1.40 1.22 0.34 0.03 0.02 0.03 0.01 0.00 0.00 0.00 0.00 0.00 0.00 0.00 0.00 0.00 0.00 0.00 0.00 0.00 0.00 0.15 0.16 0.15 0.26 0.23 0.11 0.04 0.04 0.06 0.12 0.20 0.21
0.20 0.22 0.32 0.39 0.60 0.75 0.92 0.94 0.99 1.10 1.05 0.70 0.41 0.23 0.38 0.64 0.55 0.19 0.05 0.03 0.01 0.01 0.00 0.01 0.01 0.00 0.01 0.01 0.01 0.00 0.00 0.00 0.00 0.00 0.00 0.04 0.15 0.24 0.13 0.16 0.14 0.21 0.27 0.10 0.07 0.15 0.21
0.13 0.16 0.20 0.31 0.43 0.51 0.59 0.74 0.76 0.71 0.62 0.63 0.66 0.32 0.12 0.05 0.09 0.19 0.13 0.07 0.02 0.01 0.01 0.00 0.00 0.00 0.00 0.00 0.00 0.00 0.00 0.01 0.01 0.02 0.03 0.04 0.08 0.18 0.17 0.17 0.17 0.29 0.37 0.31 0.11 0.14 0.11
0.12 0.11 0.12 0.23 0.35 0.40 0.38 0.50 0.70 0.62 0.57 0.75 0.60 0.34 0.24 0.27 0.21 0.31 0.21 0.03 0.02 0.02 0.02 0.00 0.00 0.00 0.00 0.00 0.00 0.00 0.00 0.00 0.00 0.01 0.05 0.07 0.11 0.09 0.17 0.06 0.11 0.21 0.44 0.32 0.14 0.08 0.05
0.15 0.09 0.10 0.13 0.19 0.36 0.39 0.37 0.42 0.48 0.49 0.60 0.45 0.32 0.32 0.33 0.18 0.13 0.07 0.04 0.05 0.02 0.02 0.01 0.01 0.01 0.00 0.00 0.01 0.00 0.00 0.00 0.02 0.02 0.02 0.05 0.09 0.12 0.19 0.16 0.24 0.18 0.18 0.18 0.10 0.09 0.05
0.15 0.08 0.13 0.12 0.12 0.23 0.35 0.29 0.19 0.16 0.25 0.39 0.44 0.27 0.20 0.15 0.10 0.14 0.14 0.13 0.09 0.05 0.05 0.04 0.02 0.00 0.00 0.02 0.02 0.04 0.02 0.02 0.02 0.05 0.04 0.06 0.13 0.18 0.17 0.16 0.13 0.10 0.03 0.05 0.07 0.06 0.05
0.21 0.08 0.11 0.13 0.10 0.15 0.26 0.27 0.11 0.05 0.10 0.19 0.22 0.20 0.16 0.16 0.15 0.04 0.04 0.06 0.11 0.08 0.11 0.08 0.01 0.00 0.01 0.02 0.03 0.03 0.03 0.02 0.03 0.02 0.07 0.08 0.11 0.20 0.09 0.15 0.15 0.05 0.01 0.00 0.01 0.04 0.01
0.24 0.15 0.10 0.07 0.09 0.14 0.21 0.20 0.10 0.08 0.12 0.09 0.08 0.14 0.22 0.13 0.03 0.03 0.05 0.09 0.04 0.04 0.08 0.04 0.00 0.01 0.00 0.01 0.03 0.02 0.01 0.01 0.02 0.01 0.03 0.08 0.21 0.28 0.11 0.11 0.08 0.01 0.02 0.01 0.06 0.07 0.01
0.17 0.16 0.11 0.05 0.06 0.11 0.16 0.15 0.09 0.14 0.13 0.07 0.05 0.08 0.20 0.14 0.04 0.03 0.01 0.02 0.03 0.02 0.02 0.02 0.05 0.06 0.01 0.01 0.02 0.01 0.00 0.01 0.02 0.01 0.01 0.02 0.06 0.12 0.11 0.08 0.09 0.01 0.03 0.02 0.03 0.01 0.00
0.21 0.16 0.09 0.03 0.03 0.06 0.09 0.09 0.11 0.11 0.11 0.10 0.15 0.16 0.16 0.14 0.09 0.02 0.02 0.02 0.01 0.00 0.00 0.01 0.01 0.01 0.00 0.00 0.00 0.00 0.00 0.01 0.02 0.02 0.01 0.00 0.00 0.03 0.04 0.04 0.02 0.02 0.02 0.01 0.00 0.00 0.00